OBJECT R, 57181

Orbit data source: Space-Track

You're viewing an Uncataloged Satellite

Recently launched and/or uncataloged satellites may have evolving metadata. Metadata may include but not limited to: Owner, Maufacturer, Bus, Motor, and Mission.

OBJECT R, 57181 is a satellite in SSO that was launched on Tue, 27 Jun 2023 UTC via a SOYUZ-2-1B launch vehicle from the Vostochny Cosmodrome (VOSTO). Unknown objects in Earth's orbit typically refer to objects detected orbiting the Earth but have not yet been identified or cataloged. These objects could be anything from previously untracked satellites, spent rocket stages, debris from satellite collisions, or even natural meteoroids temporarily captured by Earth's gravity.

Loading next visibility...
Identifier
57181, 2023-091R
Orbit
SSO
Country
Flag of TBDTBD
Related business
None
Manufacturer
Unknown
Mission
Operational Amateur Communications
Bus & Motor
Unknown
Mass
Unknown
Launch date (UTC)
2023-06-27 (3 years ago)
Launch vehicle
SOYUZ-2-1B
Launch site
Vostochny Cosmodrome (VOSTO)
Object type
Unknown
Shape & HBR
Box, 0.1 m
Radar Cross Section
0.035 m², Medium (>0.1 m² and < 1m²)

Expand to show TLE details & history
Last TLE update: 5 days ago

TLE from 5 days ago
0 OBJECT R
1 57181U 23091R   26155.21092020  .00004044  00000-0  22322-3 0  9998
2 57181  97.5069 209.3334 0015286 176.3612 183.7734 15.14412969161724
Epoch: 2026-06-04T05:03Z
TLE epoch observation values (Epoch: 2026-06-04T05:03:43.505Z)
Latitude
0.00001°
Longitude
-119.25632°
Altitude
536.369 km
Speed
7.589 km/s
True Right ascension
13h 57m 20s
True Declination
0° 00' 00"
Sunlit
Object was in full shadow at epoch
Visualization orbit readout
Latitude
Unknown
Longitude
Unknown
Altitude
Unknown
Speed
Unknown
Apparent Right ascension
Unknown
Apparent Declination
Unknown
Sunlit
N/A
Visualization observer readout
Local Sidereal Time
19:43:24
Azimuth
Unknown
Elevation
Unknown
Doppler factor
Unknown
Orbital elements
Apogee altitude
530.283 km
Perigee altitude
509.195 km
Semi-major axis
6,897.876 km
Eccentricity
0.00153
Inclination
97.5069°
RAAN
209.3334°
Arg. of periapsis
176.3612°
True anomaly
183.76189°
Mean anomaly
183.7734°
Eccentric anomaly
183.76764°
Mean motion
3.78852 °/min
Orbital period
95.02 mins
BSTAR
0.00022322
Loading maneuver chart data...
Computing Atmospheric mass density...
Loading historical data...
Loading historical data...
Loading historical data...
Loading historical data...
Loading historical data...
Loading historical data...
Loading historical data...

Documentation

Showing up to 5 results
|